User: anonymous   Login
Location: Les Coudrans
(46.1056°N, 1.1158°W)
Time: 16:14:39
(UTC+00:00)
Language:

PSLV R/B - Orbit

View from above orbital plane
View from above orbital plane
View from above satellite
View from above satellite

Ground track
Ground track

The orbit data is extracted from the following two-line orbital elements,

1 36800U 10035F   21129.21927191  .00000556  00000-0  56650-4 0  9995
2 36800  98.1613 325.8800 0021188 326.7466  33.2421 14.94922970589292
Epoch (UTC): 09 May 2021 05:15:45
Eccentricity: 0.0021188
inclination: 98.1613°
perigee height: 568 km
apogee height: 597 km
right ascension of ascending node: 325.8800°
argument of perigee: 326.7466°
revolutions per day: 14.94922970
mean anomaly at epoch: 33.2421°
orbit number at epoch: 58929

The dashed part of the orbit path shows where the satellite is in the earth's shadow,  

DLR